User: anonymous   Login
Location: Caltech
(34.1382°N, 118.1253°W)
Time: 04:55:50
(UTC-07:00)
Language:

Iridium 70 - Orbit

View from above orbital plane
View from above orbital plane
View from above satellite
View from above satellite

Ground track
Ground track

The orbit data is extracted from the following two-line orbital elements,

1 25342U 98032A   16236.44381241  .00000030  00000-0  35503-5 0  9997
2 25342  86.4006 348.7091 0002051  96.3816 307.0439 14.34219028956421
Epoch (UTC): 23 August 2016 10:39:05
Eccentricity: 0.0002051
inclination: 86.4006°
perigee height: 776 km
apogee height: 779 km
right ascension of ascending node: 348.7091°
argument of perigee: 96.3816°
revolutions per day: 14.34219028
mean anomaly at epoch: 307.0439°
orbit number at epoch: 95642

The dashed part of the orbit path shows where the satellite is in the earth's shadow,  

DLR